California, MD

2:43 AM EDT on September 28, 2016 (GMT -0400)
Leonardtown

Weather History for K2W6 - February, 2013

Change the Weather History Date:

Saturday, February 2, 2013

  Actual Average (KNHK) Record (KNHK)
Temperature  
Mean Temperature 24 °F -  
Max Temperature 32 °F 47 °F 57 °F (2015)
Min Temperature 17 °F 29 °F 27 °F (2015)
Degree Days  
Heating Degree Days 40    
Moisture  
Dew Point 10 °F    
Average Humidity 52    
Maximum Humidity 93    
Minimum Humidity 30    
Precipitation  
Precipitation 0.00 in - - ()
Sea Level Pressure  
Sea Level Pressure 30.25 in    
Wind  
Wind Speed 5 mph (SW)    
Max Wind Speed 10 mph    
Max Gust Speed 17 mph    
Visibility 10 miles    
Events      
Averages and records for this station are not official NWS values.
T = Trace of Precipitation, MM = Missing Value Source: NWS Daily Summary

Daily Weather History Graph

Daily Weather History Graph

Search for Another Location

Airport or City:

Trip Planner

Search our weather history database for the weather conditions in past years. The results will help you decide how hot, cold, wet, or windy it might be!

Date:

Astronomy

Feb. 02, 2013 Rise Set
Actual Time 7:10 AM EST 5:30 PM EST
Civil Twilight 6:42 AM EST 5:58 PM EST
Nautical Twilight 6:10 AM EST 6:29 PM EST
Astronomical Twilight 5:39 AM EST 7:00 PM EST
Moon No Moon Rise 10:25 AM EST (2/2)
Length of Visible Light 11h 15m
Length of Day
10h 20m
Waning Gibbous, 60% of the Moon is Illuminated
Feb 2
Waning Gibbous
Feb 3
Last Quarter
Feb 10
New
Feb 17
First Quarter
Feb 25
Full

Hourly Weather History & Observations

Time (EST) Temp. Windchill Dew Point Humidity Pressure Visibility Wind Dir Wind Speed Gust Speed Precip Events Conditions
12:04 AM 21.2 °F 11.7 °F 1.4 °F 42% 30.39 in 10.0 mi WNW 8.1 mph - N/A   Clear
12:26 AM 21.2 °F 12.6 °F 1.4 °F 42% 30.40 in 10.0 mi WNW 6.9 mph - N/A   Clear
12:47 AM 21.2 °F 12.6 °F 1.4 °F 42% 30.40 in 10.0 mi WNW 6.9 mph - N/A   Clear
1:08 AM 21.2 °F 14.9 °F 1.4 °F 42% 30.40 in 10.0 mi West 4.6 mph - N/A   Clear
1:30 AM 21.2 °F 13.6 °F 1.4 °F 42% 30.40 in 10.0 mi WNW 5.8 mph - N/A   Clear
1:51 AM 21.2 °F 16.4 °F 1.4 °F 42% 30.40 in 10.0 mi NW 3.5 mph - N/A   Clear
3:16 AM 19.4 °F 12.8 °F 3.2 °F 49% 30.38 in 10.0 mi NW 4.6 mph - N/A   Clear
3:38 AM 19.4 °F 12.8 °F 3.2 °F 49% 30.38 in 10.0 mi WNW 4.6 mph - N/A   Clear
3:59 AM 19.4 °F - 3.2 °F 49% 30.38 in 10.0 mi Calm Calm - N/A   Clear
4:20 AM 19.4 °F - 3.2 °F 49% 30.38 in 10.0 mi Calm Calm - N/A   Clear
4:42 AM 19.4 °F - 3.2 °F 49% 30.38 in 10.0 mi Calm Calm - N/A   Clear
5:03 AM 19.4 °F - 5.0 °F 54% 30.39 in 10.0 mi Calm Calm - N/A   Clear
5:24 AM 19.4 °F - 5.0 °F 54% 30.39 in 10.0 mi Calm Calm - N/A   Clear
5:46 AM 19.4 °F - 6.8 °F 58% 30.39 in 10.0 mi Calm Calm - N/A   Clear
6:07 AM 19.4 °F - 8.6 °F 63% 30.39 in 10.0 mi Calm Calm - N/A   Clear
7:11 AM 17.6 °F - 6.8 °F 63% 30.39 in 10.0 mi Calm Calm - N/A   Clear
7:32 AM 17.6 °F - 8.6 °F 68% 30.39 in 10.0 mi Calm Calm - N/A   Clear
7:54 AM 19.4 °F - 8.6 °F 63% 30.39 in 10.0 mi Calm Calm - N/A   Clear
8:15 AM 21.2 °F - 8.6 °F 58% 30.39 in 10.0 mi Calm Calm - N/A   Clear
8:36 AM 23.0 °F - 5.0 °F 46% 30.39 in 10.0 mi Calm Calm - N/A   Clear
8:57 AM 23.0 °F - 8.6 °F 54% 30.38 in 10.0 mi Calm Calm - N/A   Clear
9:19 AM 26.6 °F 22.6 °F 10.4 °F 51% 30.37 in 10.0 mi SSW 3.5 mph - N/A   Clear
9:40 AM 26.6 °F 21.2 °F 10.4 °F 51% 30.37 in 10.0 mi SE 4.6 mph - N/A   Clear
10:01 AM 26.6 °F 21.2 °F 10.4 °F 51% 30.36 in 10.0 mi South 4.6 mph - N/A   Clear
10:22 AM 28.4 °F 21.2 °F 8.6 °F 43% 30.36 in 10.0 mi SW 6.9 mph - N/A   Clear
10:44 AM 28.4 °F 20.4 °F 5.0 °F 37% 30.36 in 10.0 mi SSW 8.1 mph - N/A   Clear
11:05 AM 30.2 °F 22.6 °F 5.0 °F 34% 30.35 in 10.0 mi SSW 8.1 mph - N/A   Clear
11:26 AM 30.2 °F 22.6 °F 5.0 °F 34% 30.33 in 10.0 mi SSW 8.1 mph - N/A   Clear
11:48 AM 30.2 °F 23.4 °F 5.0 °F 34% 30.31 in 10.0 mi South 6.9 mph 16.1 mph N/A   Clear
12:09 PM 30.2 °F 24.3 °F 5.0 °F 34% 30.29 in 10.0 mi SSW 5.8 mph - N/A   Clear
12:30 PM 32.0 °F 24.2 °F 5.0 °F 32% 30.27 in 10.0 mi SSW 9.2 mph 16.1 mph N/A   Clear
12:51 PM 32.0 °F 23.6 °F 5.0 °F 32% 30.26 in 10.0 mi South 10.4 mph 16.1 mph N/A   Scattered Clouds
1:13 PM 32.0 °F 24.8 °F 5.0 °F 32% 30.24 in 10.0 mi WSW 8.1 mph - N/A   Mostly Cloudy
1:34 PM 32.0 °F 24.8 °F 5.0 °F 32% 30.22 in 10.0 mi SW 8.1 mph 17.3 mph N/A   Scattered Clouds
1:55 PM 32.0 °F 24.8 °F 5.0 °F 32% 30.21 in 10.0 mi South 8.1 mph - N/A   Clear
2:17 PM 32.0 °F 23.6 °F 3.2 °F 30% 30.21 in 10.0 mi SW 10.4 mph - N/A   Clear
2:38 PM 32.0 °F 24.2 °F 3.2 °F 30% 30.20 in 10.0 mi SW 9.2 mph - N/A   Clear
2:59 PM 32.0 °F 24.8 °F 5.0 °F 32% 30.19 in 10.0 mi SSW 8.1 mph - N/A   Scattered Clouds
3:20 PM 32.0 °F 26.4 °F 5.0 °F 32% 30.19 in 10.0 mi SSW 5.8 mph - N/A   Scattered Clouds
3:42 PM 32.0 °F 24.2 °F 5.0 °F 32% 30.17 in 10.0 mi SSW 9.2 mph - N/A   Overcast
4:03 PM 32.0 °F 25.6 °F 6.8 °F 35% 30.16 in 10.0 mi SW 6.9 mph - N/A   Overcast
4:24 PM 32.0 °F 25.6 °F 6.8 °F 35% 30.16 in 10.0 mi WSW 6.9 mph - N/A   Overcast
4:45 PM 32.0 °F 25.6 °F 6.8 °F 35% 30.16 in 10.0 mi SSW 6.9 mph - N/A   Overcast
5:07 PM 32.0 °F 26.4 °F 8.6 °F 38% 30.16 in 10.0 mi SW 5.8 mph - N/A   Overcast
5:28 PM 32.0 °F 23.6 °F 8.6 °F 38% 30.13 in 10.0 mi SW 10.4 mph - N/A   Overcast
5:49 PM 32.0 °F 23.6 °F 10.4 °F 41% 30.13 in 10.0 mi SSW 10.4 mph - N/A   Overcast
6:11 PM 32.0 °F 25.6 °F 17.6 °F 55% 30.12 in 10.0 mi SSW 6.9 mph - N/A   Overcast
6:32 PM 32.0 °F 28.7 °F 19.4 °F 60% 30.12 in 7.0 mi SW 3.5 mph - N/A   Overcast
6:53 PM 32.0 °F 26.4 °F 17.6 °F 55% 30.12 in 10.0 mi SSW 5.8 mph - N/A   Overcast
7:14 PM 32.0 °F 24.2 °F 17.6 °F 55% 30.13 in 7.0 mi SW 9.2 mph - N/A   Overcast
7:36 PM 32.0 °F 24.8 °F 19.4 °F 60% 30.13 in 10.0 mi SSW 8.1 mph 17.3 mph N/A   Overcast
7:57 PM 32.0 °F 24.2 °F 21.2 °F 64% 30.13 in 7.0 mi SW 9.2 mph - N/A   Overcast
8:18 PM 32.0 °F 24.2 °F 26.6 °F 80% 30.12 in 2.5 mi SSW 9.2 mph - N/A   Overcast
8:39 PM 30.2 °F 23.4 °F 26.6 °F 86% 30.11 in 2.5 mi SSW 6.9 mph - N/A   Overcast
9:01 PM 30.2 °F 26.7 °F 28.4 °F 93% 30.09 in 7.0 mi South 3.5 mph - N/A   Overcast
9:22 PM 30.2 °F - 26.6 °F 86% 30.08 in 10.0 mi Calm Calm - N/A   Overcast
10:05 PM 30.2 °F - 26.6 °F 86% 30.06 in 10.0 mi Calm Calm - N/A   Clear
10:26 PM 30.2 °F - 26.6 °F 86% 30.06 in 10.0 mi Calm Calm - N/A   Scattered Clouds
10:47 PM 30.2 °F - 26.6 °F 86% 30.05 in 10.0 mi Calm Calm - N/A   Overcast
11:09 PM 30.2 °F - 26.6 °F 86% 30.04 in 10.0 mi Calm Calm - N/A   Overcast
11:30 PM 30.2 °F - 26.6 °F 86% 30.03 in 10.0 mi Calm Calm - N/A   Overcast
11:51 PM 30.2 °F - 26.6 °F 86% 30.02 in 10.0 mi Calm Calm - N/A   Overcast